FW4213 Weather Reports


Display with metric or nautical units.
time (UTC)temp
F
wind
direction
speed
MPH
gust
MPH
rain 1hr
in
rain 24hr
in
rain mn
in
humidity
%
barometer
mb
20260901083035 62 102 1.0 4.0 0.00 0.00 0.00 49 1010.5
20260901081532 61 147 3.0 7.0 0.00 0.00 0.00 48 1010.6
20260901080029 62 122 2.0 4.0 0.00 0.00 0.00 44 1010.5
20260901074531 63 136 0.0 7.0 0.00 0.00 0.00 42 1010.5
20260901073034 63 139 4.0 8.0 0.00 0.00 0.00 42 1010.3
20260901071535 63 146 6.0 10.0 0.00 0.00 0.00 41 1010.2
20260901070032 65 141 5.0 8.0 0.00 0.00 0.00 38 1010.1
20260901064536 65 142 6.0 9.0 0.00 0.00 0.00 37 1010.0
20260901063030 66 137 2.0 8.0 0.00 0.00 0.00 36 1010.1
20260901061532 67 149 7.0 11.0 0.00 0.00 0.00 34 1010.1
20260901060108 67 154 7.0 11.0 0.00 0.00 0.00 34 1010.1
20260901054531 68 148 7.0 11.0 0.00 0.00 0.00 34 1010.2
20260901051607 69 145 9.0 14.0 0.00 0.00 0.00 33 1010.1
20260901050037 70 144 9.0 14.0 0.00 0.00 0.00 32 1010.0
20260901044535 71 145 8.0 11.0 0.00 0.00 0.00 32 1009.9
20260901043108 71 146 7.0 11.0 0.00 0.00 0.00 31 1009.9
20260901041531 72 149 6.0 9.0 0.00 0.00 0.00 30 1009.8
20260901040030 73 139 6.0 8.0 0.00 0.00 0.00 30 1009.5
20260901034532 73 156 4.0 8.0 0.00 0.00 0.00 30 1009.4
20260901033033 74 152 5.0 10.0 0.00 0.00 0.00 29 1009.1
20260901031532 75 156 5.0 8.0 0.00 0.00 0.00 29 1009.0
20260901024532 77 153 6.0 9.0 0.00 0.00 0.00 27 1008.6
20260901021530 78 139 5.0 9.0 0.00 0.00 0.00 28 1008.5
20260901020031 81 174 1.0 4.0 0.00 0.00 0.00 26 1008.5
20260901014535 84 180 0.0 1.0 0.00 0.00 0.00 24 1008.6
20260901013032 85 180 0.0 0.0 0.00 0.00 0.00 22 1008.6
20260901011644 86 214 0.0 3.0 0.00 0.00 0.00 21 1008.6
20260901010144 87 163 1.0 5.0 0.00 0.00 0.00 20 1008.7
20260901004529 87 164 2.0 7.0 0.00 0.00 0.00 19 1008.8
20260901003035 87 148 2.0 6.0 0.00 0.00 0.00 19 1008.9
20260901001534 88 162 3.0 8.0 0.00 0.00 0.00 19 1009.0
20260901000107 88 148 3.0 7.0 0.00 0.00 0.00 19 1009.2
20260831234535 89 93 2.0 7.0 0.00 0.00 0.00 19 1009.4
20260831233143 88 125 1.0 7.0 0.00 0.00 0.00 19 1009.5
20260831231535 88 145 4.0 10.0 0.00 0.00 0.00 20 1009.8
20260831230038 87 139 4.0 9.0 0.00 0.00 0.00 20 1010.1
20260831223105 87 136 3.0 8.0 0.00 0.00 0.00 21 1010.5
20260831221531 86 87 2.0 7.0 0.00 0.00 0.00 21 1010.6
20260831220036 86 138 4.0 9.0 0.00 0.00 0.00 22 1011.0
20260831214530 85 145 4.0 11.0 0.00 0.00 0.00 23 1011.2
20260831213039 85 126 3.0 8.0 0.00 0.00 0.00 23 1011.5
20260831211538 84 153 4.0 9.0 0.00 0.00 0.00 24 1011.7
20260831210034 83 152 3.0 12.0 0.00 0.00 0.00 25 1011.9
20260831204534 82 155 5.0 12.0 0.00 0.00 0.00 27 1012.2
20260831203030 81 140 4.0 9.0 0.00 0.00 0.00 28 1012.5
20260831201537 80 85 3.0 11.0 0.00 0.00 0.00 29 1012.9
20260831194536 79 97 5.0 14.0 0.00 0.00 0.00 31 1013.5
20260831193032 78 183 3.0 11.0 0.00 0.00 0.00 30 1013.7
20260831191532 77 129 3.0 11.0 0.00 0.00 0.00 32 1014.1
20260831190034 76 156 5.0 11.0 0.00 0.00 0.00 33 1014.3
20260831184531 76 152 4.0 12.0 0.00 0.00 0.00 34 1014.7
20260831183031 74 137 4.0 11.0 0.00 0.00 0.00 36 1015.0
20260831181532 72 132 3.0 9.0 0.00 0.00 0.00 42 1015.3
20260831180106 70 343 3.0 9.0 0.00 0.00 0.00 51 1015.4
20260831174648 68 298 2.0 6.0 0.00 0.00 0.00 54 1015.6
20260831173036 66 322 2.0 5.0 0.00 0.00 0.00 56 1015.8
20260831170031 64 310 1.0 4.0 0.00 0.00 0.00 60 1016.1
20260831164531 62 347 2.0 5.0 0.00 0.00 0.00 61 1016.4
20260831163030 61 336 3.0 6.0 0.00 0.00 0.00 64 1016.5
20260831161531 60 306 2.0 5.0 0.00 0.00 0.00 67 1016.7
20260831160034 60 304 0.0 4.0 0.00 0.00 0.00 69 1016.8
20260831154537 59 357 0.0 3.0 0.00 0.00 0.00 71 1016.9
20260831153034 57 106 0.0 0.0 0.00 0.00 0.00 76 1016.9
20260831151605 54 135 0.0 0.0 0.00 0.00 0.00 79 1016.9
20260831150031 52 135 0.0 4.0 0.00 0.00 0.00 82 1016.8
20260831144533 50 134 3.0 4.0 0.00 0.00 0.00 85 1016.6
20260831143033 49 137 0.0 3.0 0.00 0.00 0.00 85 1016.6
20260831140031 49 135 0.0 1.0 0.00 0.00 0.00 83 1016.5
20260831134537 50 135 0.0 0.0 0.00 0.00 0.00 81 1016.6
20260831133037 51 137 2.0 6.0 0.00 0.00 0.00 80 1016.6
20260831130035 49 149 3.0 6.0 0.00 0.00 0.00 81 1016.5
20260831124536 50 157 0.0 3.0 0.00 0.00 0.00 79 1016.5
20260831123148 51 157 0.0 2.0 0.00 0.00 0.00 79 1016.4
20260831121535 51 150 2.0 6.0 0.00 0.00 0.00 78 1016.4
20260831120029 52 155 1.0 5.0 0.00 0.00 0.00 77 1016.5
20260831114531 52 156 1.0 4.0 0.00 0.00 0.00 77 1016.4
20260831113029 53 146 1.0 5.0 0.00 0.00 0.00 74 1016.4
20260831111532 54 143 5.0 8.0 0.00 0.00 0.00 73 1016.4
20260831104606 54 148 5.0 8.0 0.00 0.00 0.00 72 1016.4
20260831103034 54 145 5.0 8.0 0.00 0.00 0.00 72 1016.4
20260831100030 55 135 1.0 6.0 0.00 0.00 0.00 69 1016.7
20260831094538 56 141 5.0 8.0 0.00 0.00 0.00 68 1016.8
20260831091533 56 140 5.0 7.0 0.00 0.00 0.00 67 1016.9
20260831090033 56 145 5.0 8.0 0.00 0.00 0.00 66 1016.9
20260831084535 57 145 6.0 8.0 0.00 0.00 0.00 66 1016.9